This demonstration page uses our WeatherBlox Daily Observations layout. Learn more.

Left ArrowRight Arrow

41.55636, -103.73856

Hourly Observations for June 1, 2018

Temp ( °F °C ) Dew Point ( °F °C ) Humidity (%) Winds ( mph kmh ) Pressure ( in mb ) Visibility ( mi km ) Precip ( " mm )
12:58 am 00:58 Clear 62 16.5 53 11.9 74 74 SE 13 20 29.64 1004 10 16 N/A
1:58 am 01:58 Clear 60 15.8 54 12 78 78 S 8 13 29.65 1004 10 16 N/A
2:58 am 02:58 Clear 57 14 53 11.8 87 87 SSE 9 15 29.65 1004 10 16 N/A
3:58 am 03:58 Clear 58 14.7 53 11.9 83 83 S 9 15 29.64 1004 10 16 N/A
4:58 am 04:58 Mostly Clear 56 13.6 53 11.6 88 88 S 9 15 29.64 1004 10 16 N/A
5:58 am 05:58 Mostly Sunny 56 13.1 53 11.4 90 90 SSW 8 13 29.67 1005 10 16 N/A
6:58 am 06:58 Sunny 56 13.1 53 11.6 91 91 SW 8 13 29.68 1005 10 16 N/A
7:58 am 07:58 Sunny 63 17.4 55 12.8 75 75 SSW 9 15 29.69 1005 10 16 N/A
8:58 am 08:58 Sunny 73 22.9 43 6.2 34 34 W 14 22 29.68 1005 10 16 N/A
9:58 am 09:58 Sunny 77 25 38 3.6 25 25 W 17 28 29.69 1005 10 16 N/A
10:58 am 10:58 Sunny 80 26.6 26 -3.1 14 14 WNW 25 41 29.68 1005 10 16 N/A
11:58 am 11:58 Sunny 81 27.1 28 -2.1 15 15 WNW 23 37 29.71 1006 10 16 N/A
12:58 pm 12:58 Sunny 82 27.6 33 0.3 17 17 NW 18 30 29.71 1006 10 16 N/A
1:58 pm 13:58 Sunny 82 28 32 -0.1 16 16 WNW 22 35 29.72 1006 10 16 N/A
2:58 pm 14:58 Sunny 82 28 36 2 19 19 NW 14 22 29.73 1007 10 16 N/A
3:58 pm 15:58 Sunny 82 27.9 34 1.3 18 18 NW 20 31 29.73 1007 10 16 N/A
4:58 pm 16:58 Sunny 74 23.4 41 4.8 30 30 N 21 33 29.78 1008 10 16 N/A
5:58 pm 17:58 Mostly Cloudy 71 21.7 38 3.5 30 30 N 22 35 29.78 1008 10 16 N/A
6:58 pm 18:58 Mostly Cloudy 68 19.9 41 5.2 38 38 N 20 31 29.81 1009 10 16 N/A
7:58 pm 19:58 Mostly Cloudy 69 20.4 38 3.5 33 33 NNW 17 28 29.87 1012 10 16 N/A
8:58 pm 20:58 Cloudy 65 18.5 37 2.5 35 35 NNW 10 17 29.90 1013 10 16 N/A
9:58 pm 21:58 Partly Cloudy 60 15.3 39 3.7 46 46 N 12 19 29.93 1013 10 16 N/A
10:58 pm 22:58 Clear 61 15.9 35 1.6 38 38 WNW 16 26 29.94 1014 10 16 N/A
11:58 pm 23:58 Mostly Clear 55 12.7 45 7.2 69 69 N 17 28 29.96 1014 10 16 N/A

Powered by AerisWeather